Location: *
(57.8420°S, 159.8600°W)
Time: 04:50:51
(UTC+00:00)

YAOGAN 6 - Pass Details

Date: 18 May 2021
Orbit: 464 x 503 km, 97.0° (Epoch: 20 June)

Event Time Altitude Azimuth Distance (km) Brightness Sun altitude
Exits shadow 05:00:01 12° 176° (S) 1,548 5.0 -19.7°
Maximum altitude 05:03:11 48° 249° (WSW) 640 3.5 -20.1°
Drops below altitude 10° 05:06:38 10° 324° (NW) 1,663 5.8 -20.6°
Sets 05:08:44 0° 329° (NNW) 2,540 6.7 -20.8°
